Regional Weather Roundup
Issued by NWS

Home | Current Version | Previous Version | Text Only | Print | Product List | Glossary Off
Versions: 1 2 3 4 5 6 7 8 9 10 11 12 13 14 15 16 17 18 19 20 21 22 23 24 25 26 27 28 29 30 31 32 33 34 35 36 37 38 39 40 41 42 43 44 45 46 47 48 49 50

000
ASUS43 KMPX 270301
RWRMN
WEATHER ROUNDUP FOR MINNESOTA
NATIONAL WEATHER SERVICE TWIN CITIES/CHANHASSEN MN
1000 PM CDT WED APR 26 2017


NOTE: "FAIR" INDICATES FEW OR NO CLOUDS BELOW 12,000 FEET WITH NO
SIGNIFICANT WEATHER AND/OR OBSTRUCTIONS TO VISIBILITY. N/A MEANS
CURRENT SKY AND/OR WEATHER CONDITIONS ARE NOT AVAILABLE.

MNZ060>063-068>070-270400-
   Twin Cities Metro

CITY           SKY/WX    TMP DP  RH WIND       PRES   REMARKS
TWIN CITIES    CLOUDY    37  31  78 N14       29.59S
ST PAUL        CLOUDY    37  34  89 N10       29.60S
CRYSTAL        CLOUDY    35  30  82 NW12      29.59F WCI  27
LAKEVILLE      CLOUDY    36  34  93 NW9       29.58S
EDEN PRAIRIE   CLOUDY    37  31  78 NW12      29.58F
SOUTH ST PAUL  MIX PCPN  37  34  88 N10       29.58F
LAKE ELMO      CLOUDY    36  32  87 N8        29.59S
$$
MNZ001>005-007-008-013>017-022>024-027-028-270400-
   Northwest Minnesota

CITY           SKY/WX    TMP DP  RH WIND       PRES   REMARKS
BEMIDJI        LGT SNOW  26  23  91 NE9G16    29.68R WCI  16
HALLOCK        CLOUDY    32  28  86 NE8       29.79S WCI  25
ROSEAU         LGT SNOW  30  25  80 NE18      29.77S WCI  18
WARROAD        LGT SNOW  28  25  86 NE21G28   29.78R WCI  15
THIEF RVR FALL LGT SNOW  27  25  92 NE17      29.74S FOG     WCI  14
CROOKSTON      LGT SNOW  28  28 100 NE10      29.76S WCI  19
FOSSTON        FLURRIES  25  23  93 N10       29.70S WCI  15
DETROIT LAKES  CLOUDY    30  28  93 N6        29.68R WCI  24
MOORHEAD       LGT SNOW  28  27  93 N8        29.74R WCI  20
PARK RAPIDS    LGT SNOW  28  22  78 N12       29.65R WCI  18
MAHNOMEN       FLURRIES  27  25  92 N5        29.69S WCI  21
$$
MNZ006-009>011-018-025>026-270400-
   North Central Minnesota

CITY           SKY/WX    TMP DP  RH WIND       PRES   REMARKS
BAUDETTE       FLURRIES  27  20  75 NE16G25   29.74R WCI  15
FLAG ISLAND    FLURRIES  28  21  74 NE25G33   29.80R WCI  14
INTL FALLS     CLOUDY    24  16  71 NE15G23   29.73R WCI  11
WASKISH        CLOUDY    27  21  80 NE15      29.72S WCI  15
BIG FORK       CLOUDY    27  19  74 N8        29.68R WCI  18
LONGVILLE      LGT SNOW  27  25  93 N5        29.66R WCI  21
GRAND RAPIDS   CLOUDY    26  21  81 N8        29.66S WCI  18
CRANE LAKE     CLOUDY    21  18  86 NE6       29.72S WCI  14
ORR            CLOUDY    23  16  74 E3        29.66S
COOK           CLOUDY    23  18  80 NE3       29.67S
WALKER         LGT SNOW  25  23  90 N7        29.66S WCI  18
$$
MNZ012-019>021-037-270400-
   Northeast Minnesota

CITY           SKY/WX    TMP DP  RH WIND       PRES   REMARKS
DULUTH         CLOUDY    27  23  85 N13       29.61R WCI  16
ELY            CLOUDY    21  18  86 NE8       29.64F WCI  12
HIBBING        CLOUDY    24  19  81 NE10      29.64S WCI  14
EVELETH        CLOUDY    25  19  77 NE8       29.65S WCI  16
DULUTH HARBOR  CLOUDY    30  28  93 N15       29.65R WCI  19
TWO HARBORS    CLOUDY    28  23  80 N6        29.61R WCI  22
SILVER BAY     CLOUDY    25  21  86 N9        29.61R WCI  15
GRAND MARAIS     N/A     24  19  81 N13G23    29.63R WCI  12
G MARAIS ARPRT CLOUDY    18  12  79 N7        29.57F WCI   8
$$
MNZ029>031-032-039>041-046>048-054>057-064-270400-
   West Central Minnesota

CITY           SKY/WX    TMP DP  RH WIND       PRES   REMARKS
FERGUS FALLS   CLOUDY    28  27  93 N15       29.69R WCI  17
WHEATON        CLOUDY    30  27  86 NW14G21   29.71F WCI  20
MORRIS         CLOUDY    30  28  93 N15       29.66S FOG     WCI  19
ALEXANDRIA     CLOUDY    30  28  92 N10       29.65S WCI  21
ELBOW LAKE     CLOUDY    30  28  91 NW12G17   29.67S WCI  21
WADENA         LGT SNOW  27  25  93 CALM      29.65S
GLENWOOD       CLOUDY    30  27  86 N7        29.64F WCI  23
APPLETON       CLOUDY    32  27  80 N10       29.67F WCI  24
BENSON         CLOUDY    34  27  75 N8        29.67F WCI  27
ORTONVILLE     CLOUDY    30  25  80 N13G21    29.69R WCI  20
MADISON        CLOUDY    34  28  80 N18       29.69S WCI  23
WILLMAR        CLOUDY    34  30  86 N13       29.64F WCI  25
$$
MNZ033>034-036-042>043-049>051-058-059-270400-
   Central Minnesota

CITY           SKY/WX    TMP DP  RH WIND       PRES   REMARKS
ST CLOUD       CLOUDY    31  30  96 NW8       29.62S WCI  23
SAUK CENTRE    CLOUDY    30  27  87 N8        29.64S WCI  22
PAYNESVILLE    CLOUDY    31  31 100 N7        29.63F WCI  25
AITKIN         MIX PCPN  30  27  86 N7        29.62R WCI  23
PINE RIVER     LGT SNOW  27  27 100 CALM      29.69R
BRAINERD       LGT SNOW  29  27  92 N10       29.64S FOG     WCI  20
STAPLES        LGT SNOW  27  27 100 N5        29.65R WCI  21
LONG PRAIRIE   LGT SNOW  30  28  93 CALM      29.64S
LITTLE FALLS   LGT SNOW  30  28  93 NW3       29.63F
LITCHFIELD     CLOUDY    34  30  86 N9        29.63S WCI  26
BUFFALO        LGT RAIN  33  31  94 NW8       29.62F WCI  26
MAPLE LAKE     CLOUDY    33  32  96 NW8       29.62F FOG     WCI  26
HUTCHINSON     CLOUDY    34  31  89 N8        29.63F WCI  27
$$
MNZ037-044-045-052-053-270400-
   East Central Minnesota

CITY           SKY/WX    TMP DP  RH WIND       PRES   REMARKS
PRINCETON      CLOUDY    34  32  93 NW7       29.61F WCI  28
MORA           CLOUDY    32  30  93 N3        29.63R
CAMBRIDGE      CLOUDY    36  32  87 NW9       29.59S
RUSH CITY      FLURRIES  33  32  95 N6        29.61R WCI  27
MOOSE LAKE     CLOUDY    32  28  86 N9        29.60S WCI  24
HINCKLEY       CLOUDY    32  32 100 N7        29.61S WCI  26
CLOQUET        CLOUDY    28  25  86 N6        29.62R WCI  22
MCGREGOR       CLOUDY    30  28  93 NE5       29.63S WCI  25
$$
MNZ071>073-080-081-089-090-097-098-270400-
   Southwest Minnesota

CITY           SKY/WX    TMP DP  RH WIND       PRES   REMARKS
MONTEVIDEO     CLOUDY    30  28  93 N14       29.67S WCI  20
GRANITE FALLS  CLOUDY    33  30  91 NW15      29.68F WCI  22
CANBY          CLOUDY    31  28  86 N12G21    29.70S WCI  22
MARSHALL       CLOUDY    30  27  88 N16       29.67S WCI  19
REDWOOD FALLS  CLOUDY    33  28  81 NW13      29.65S WCI  24
OLIVIA         LGT SNOW  34  32  93 NW9       29.63F WCI  26
PIPESTONE      CLOUDY    30  25  80 N12G18    29.65S WCI  21
WINDOM         PTCLDY    30  28  93 NW14      29.64S WCI  20
WORTHINGTON    CLOUDY    30  27  88 N17       29.66R WCI  18
JACKSON        CLOUDY    32  28  86 NW16      29.63S WCI  21
TRACY          CLOUDY    31  29  92 NW16      29.66S WCI  20
SLAYTON        CLOUDY    29  27  92 NW16G22   29.66S WCI  17
$$
MNZ065>067-074>077-082>085-091>093-270400-
   South Central Minnesota

CITY           SKY/WX    TMP DP  RH WIND       PRES   REMARKS
MANKATO        CLOUDY    35  31  85 NW13      29.61S WCI  26
NEW ULM        LGT SNOW  34  32  93 NW12      29.62S WCI  25
ST JAMES       CLOUDY    32  32 100 W15       29.64R WCI  22
FAIRMONT       CLOUDY    33  31  92 NW17G24   29.62S WCI  22
GLENCOE        CLOUDY    35  34  96 NW9       29.61F WCI  28
FARIBAULT      CLOUDY    36  36 100 NW8       29.59S FOG
OWATONNA       CLOUDY    36  34  93 NW10      29.58S
WASECA         CLOUDY    36  32  87 NW10      29.61R
ALBERT LEA     CLOUDY    36  32  87 NW7G16    29.58R
$$
MNZ078>079-086>088-094>096-270400-
   Southeast Minnesota

CITY           SKY/WX    TMP DP  RH WIND       PRES   REMARKS
ROCHESTER      CLOUDY    37  35  92 NW14      29.55S
RED WING       CLOUDY    39  34  81 NW6       29.56F HAZE
STANTON        CLOUDY    38  34  84 NW8       29.57S
DODGE CENTER   CLOUDY    36  36 100 NW12      29.56R FOG
WINONA         CLOUDY    37  37 100 NW9       29.54F
AUSTIN         CLOUDY    37  34  87 NW12      29.57R
PRESTON        CLOUDY    37  34  89 NW10G16   29.55S
$$
ABBREVIATIONS USED IN REMARKS
   TC - TEMPERATURES IN CELSIUS
  WCI - WIND CHILL INDEX
   HX - HEAT INDEX
  VSB - VISIBILITY
$$



USA.gov is the U.S. government's official web portal to all federal, state and local government web resources and services.